[[{"header":{"parameterUnit":"m.s-1","parameterCategory":1,"la1":30.2991,"la2":30.254,"lo1":-89.0895,"lo2":-89.0444,"dy":0.0017,"dx":0.0017,"nx":28,"ny":28,"refTime":"2025-12-28T09:00:00:Z","depth":0,"parameterNumber":2,"parameterNumberName":"U-component_of_WINDS"},"data":[0,0,0,0,0,0,0,0,0,0,0,0,0,0,0,0,0,0,0,0,0,0,0,0,0,0,0,0,0,0,0,0,0,0,0,0,0,0,0,0,0,0,0,0,0,0,0,0,0,0,0,0,0,0,0,0,0,0,2.0944,2.0946,0,2.1083,2.1085,2.1086,2.1077,2.1075,2.1073,2.1071,2.1216,2.1222,2.1227,0,0,0,0,0,0,0,0,0,0,0,0,0,2.0674,2.0679,2.0944,2.0946,2.0948,2.1083,2.1085,2.1087,2.1077,2.1075,2.1072,2.107,2.1214,2.1221,2.1228,0,0,0,0,0,0,0,0,0,0,0,0,0,2.08,2.0681,2.0944,2.0959,2.0962,2.1083,2.1085,2.1087,2.1078,2.1074,2.1071,2.1068,2.1212,2.122,2.1229,2.1345,0,0,2.1255,2.1259,0,0,0,0,0,0,0,0,2.0793,2.081,2.0955,2.0958,2.0961,2.1059,2.1043,2.1174,2.1078,2.1034,2.1071,2.1067,2.1167,2.1179,2.1212,2.1351,2.1358,2.1256,2.1262,2.1265,2.1268,0,0,0,0,0,0,0,2.0784,2.0804,2.0999,2.0957,2.0961,2.096,2.0975,2.1068,2.1116,2.1037,2.1037,2.1053,2.1168,2.1203,2.1215,2.136,2.1256,2.1264,2.1269,2.1273,2.1605,2.1608,0,0,0,0,0,0,2.0771,2.0797,2.0995,2.1003,2.0868,2.0967,2.0984,2.1031,2.1115,2.1125,2.1056,2.1052,2.119,2.1205,2.122,2.1364,2.1265,2.1273,2.1278,2.1601,2.1606,2.161,0,0,0,0,0,0,2.0766,2.0789,2.0989,2.09,2.0925,2.0975,2.1029,2.1036,2.1071,2.1129,2.1138,2.1083,2.1188,2.1208,2.1314,2.1369,2.1277,2.1285,2.1597,2.1603,2.1608,2.1651,0,0,0,0,0,0,2.0758,2.0787,2.0831,2.0901,2.093,2.108,2.1032,2.104,2.1086,2.1083,2.1157,2.1166,2.1187,2.1301,2.1323,2.1379,2.1292,2.1592,2.1599,2.1606,2.1645,2.1658,2.1668,0,0,0,0,0,2.0748,2.0837,2.0833,2.0857,2.0986,2.1083,2.11,2.1122,2.109,2.1136,2.1173,2.1164,2.1359,2.1312,2.1337,2.1396,2.1589,2.1597,2.1605,2.164,2.1655,2.1668,0,0,0,0,0,0,2.0773,2.0847,2.0843,2.0957,2.1014,2.1081,2.1139,2.1136,2.1204,2.1198,2.1223,2.124,2.1347,2.1382,2.1329,2.1514,2.147,2.1483,2.1488,2.1503,2.1514,2.1505,2.1299,0,0,0,0,0,2.0791,2.0863,2.0924,2.1019,2.1048,2.1089,2.1132,2.1143,2.1204,2.1228,2.1273,2.1333,2.1408,2.1457,2.1528,2.1649,2.1667,2.1702,2.1714,2.1723,2.1735,2.1805,2.1822,2.1636,2.1636,2.1636,0,0,2.0831,2.088,2.0924,2.1026,2.1071,2.1147,2.1109,2.119,2.1247,2.1241,2.1345,2.138,2.1448,2.1563,2.1616,2.1595,2.179,2.1733,2.174,2.1748,2.1815,2.1832,2.1848,2.1642,2.1641,2.164,0,0,2.0943,2.0985,2.1071,2.1117,2.1186,2.1213,2.1233,2.1302,2.1325,2.1429,2.1426,2.1495,2.1622,2.1672,2.1714,2.1846,2.1842,2.1868,2.1929,2.1997,2.2011,2.2025,2.2075,2.2092,2.188,2.188,2.188,0,2.0984,2.1097,2.1115,2.1198,2.1244,2.124,2.1329,2.1373,2.1462,2.1495,2.147,2.1632,2.1677,2.1805,2.1837,2.187,2.1897,2.1861,2.2007,2.2021,2.2034,2.2082,2.21,2.1883,2.1882,2.1882,2.1882,0,2.1145,2.1224,2.1284,2.1371,2.1423,2.1508,2.1542,2.1592,2.1599,2.1629,2.1737,2.1791,2.1875,2.1906,2.1913,2.2036,2.2022,2.2002,2.1958,2.2054,2.21,2.2118,2.1887,2.1886,2.1885,2.1884,0,0,2.1277,2.1374,2.1396,2.1436,2.1513,2.1575,2.166,2.1742,2.1786,2.1848,2.1922,2.2031,2.2013,2.2061,2.2074,2.2133,2.2238,2.2106,2.2109,2.2132,2.238,2.2397,2.2418,2.2234,2.2237,2.224,2.2376,0,2.1399,2.155,2.157,2.1705,2.1779,2.1777,2.1852,2.1908,2.1938,2.2007,2.204,2.2118,2.2087,2.2116,2.2174,2.2213,2.2289,2.2203,2.2306,2.231,2.2293,2.2442,2.2459,2.2585,2.2393,2.2396,2.2399,0,2.1562,2.1629,2.1771,2.1839,2.1871,2.1938,2.2016,2.208,2.2144,2.2162,2.2216,2.2222,2.2312,2.2263,2.2389,2.2331,2.2374,2.2399,2.2405,2.2418,2.2362,2.2462,2.2625,2.2645,2.2426,2.2424,2.2422,0,2.1649,2.1773,2.1875,2.1909,2.199,2.2038,2.2074,2.2135,2.2184,2.2252,2.2284,2.2362,2.2405,2.2466,2.2494,2.2454,2.262,2.2572,2.264,2.264,2.2678,2.2676,2.2853,2.2699,2.2699,2.2699,2.2698,0,2.1785,2.1873,2.1916,2.1979,2.2078,2.21,2.2198,2.2233,2.2287,2.2359,2.236,2.2427,2.2458,2.253,2.2552,2.2656,2.2674,2.2693,2.2699,2.2696,2.2694,2.2727,2.272,2.2704,2.2703,2.2702,2.2701,0,2.19,2.1932,2.2043,2.2111,2.213,2.2201,2.2259,2.2322,2.235,2.2441,2.2463,2.2509,2.2595,2.2628,2.2731,2.2746,2.2867,2.2864,2.2846,2.2848,2.2916,2.2911,2.3124,2.3154,2.2977,2.2979,2.298,0,2.1986,2.2054,2.2129,2.2177,2.2214,2.2291,2.2341,2.2365,2.2417,2.2496,2.255,2.2634,2.2704,2.2841,2.2885,2.2965,2.2966,2.3035,2.2978,2.2973,2.2972,2.2969,2.2977,2.3047,2.3048,2.305,2.3051,0,2.2137,2.215,2.2221,2.2299,2.2359,2.2421,2.2482,2.2521,2.2555,2.2614,2.2701,2.2755,2.2862,2.2947,2.303,2.3068,2.3067,2.3068,2.3089,2.3088,2.3076,2.3087,2.2879,2.3064,2.3063,2.3062,2.3061,2.3061,2.2243,2.2304,2.2368,2.2448,2.2496,2.2553,2.2616,2.2653,2.2726,2.2814,2.2824,2.2919,2.2983,2.3094,2.3136,2.3212,2.3194,2.3223,2.3231,2.3239,2.3245,2.3061,2.3226,2.3226,2.3226,2.3225,2.3225,0,2.2398,2.2438,2.2511,2.2597,2.2661,2.2651,2.2719,2.2773,2.2856,2.2916,2.2984,2.3086,2.3169,2.3219,2.3303,2.3354,2.3356,2.3376,2.3374,2.3384,2.3255,2.323,2.3373,2.3373,2.3373,2.3373,2.3373,2.3373,2.2486,2.259,2.261,2.2739,2.278,2.2872,2.2912,2.2965,2.3013,2.3127,2.3196,2.3227,2.3284,2.3373,2.3449,2.3462,2.3495,2.3517,2.3529,2.3408,2.3393,2.3378,2.3356,2.3523,2.3523,2.3652,2.3654,2.3655]},{"header":{"parameterUnit":"m.s-1","parameterCategory":1,"la1":30.2991,"la2":30.254,"lo1":-89.0895,"lo2":-89.0444,"dy":0.0017,"dx":0.0017,"nx":28,"ny":28,"refTime":"2025-12-28T09:00:00:Z","depth":0,"parameterNumber":3,"parameterNumberName":"V-component_of_WINDS"},"data":[0,0,0,0,0,0,0,0,0,0,0,0,0,0,0,0,0,0,0,0,0,0,0,0,0,0,0,0,0,0,0,0,0,0,0,0,0,0,0,0,0,0,0,0,0,0,0,0,0,0,0,0,0,0,0,0,0,0,2.458,2.4583,0,2.4842,2.4845,2.4848,2.4909,2.4907,2.4905,2.4903,2.5177,2.5186,2.5195,0,0,0,0,0,0,0,0,0,0,0,0,0,2.414,2.4148,2.458,2.4583,2.4587,2.4842,2.4845,2.4849,2.4909,2.4907,2.4904,2.4902,2.5174,2.5185,2.5196,0,0,0,0,0,0,0,0,0,0,0,0,0,2.4359,2.415,2.458,2.4647,2.4656,2.4841,2.4845,2.485,2.4909,2.4907,2.4904,2.4901,2.5171,2.5184,2.5197,2.5335,0,0,2.5238,2.5244,0,0,0,0,0,0,0,0,2.4347,2.4375,2.4634,2.4643,2.4653,2.484,2.4791,2.5013,2.491,2.4813,2.4903,2.49,2.5068,2.5089,2.5145,2.5348,2.536,2.524,2.5248,2.5254,2.5257,0,0,0,0,0,0,0,2.4332,2.4365,2.4684,2.4638,2.4649,2.4667,2.4695,2.4833,2.4953,2.4822,2.4826,2.4856,2.5072,2.5131,2.5152,2.5364,2.5239,2.5251,2.526,2.5265,2.5698,2.5701,0,0,0,0,0,0,2.4304,2.4351,2.4676,2.4692,2.449,2.4677,2.4709,2.4783,2.4951,2.4974,2.4858,2.4858,2.511,2.5136,2.5161,2.5338,2.5253,2.5266,2.5274,2.5695,2.5699,2.5703,0,0,0,0,0,0,2.4294,2.4332,2.4665,2.4523,2.4567,2.4688,2.477,2.4789,2.4849,2.4979,2.5002,2.4897,2.5109,2.5142,2.5292,2.5348,2.5272,2.5284,2.5691,2.5696,2.5701,2.5688,0,0,0,0,0,0,2.4281,2.4328,2.438,2.4524,2.4574,2.4789,2.4774,2.4796,2.4871,2.4873,2.5021,2.5043,2.5109,2.5272,2.5306,2.5365,2.5295,2.5686,2.5693,2.5699,2.5684,2.5692,2.5699,0,0,0,0,0,2.4265,2.4366,2.4382,2.4421,2.4641,2.4792,2.4821,2.4894,2.4875,2.493,2.5014,2.5038,2.5335,2.5286,2.5325,2.5389,2.5683,2.5691,2.5699,2.5681,2.5691,2.5699,0,0,0,0,0,0,2.4227,2.4386,2.4406,2.4556,2.466,2.4802,2.4873,2.4901,2.5014,2.5012,2.5099,2.5132,2.5277,2.5348,2.529,2.5534,2.5509,2.5525,2.5482,2.5493,2.55,2.5481,2.5306,0,0,0,0,0,2.4236,2.4343,2.4477,2.4597,2.4648,2.4751,2.482,2.4867,2.4979,2.5024,2.5119,2.5228,2.5347,2.5423,2.5539,2.5694,2.5729,2.5758,2.5765,2.577,2.5784,2.5875,2.589,2.5728,2.5728,2.5728,0,0,2.4256,2.4356,2.4418,2.4592,2.4678,2.479,2.4788,2.4905,2.4991,2.5042,2.519,2.5263,2.5392,2.5545,2.5618,2.5609,2.5836,2.578,2.5783,2.5795,2.5884,2.59,2.5913,2.5733,2.5732,2.5731,0,0,2.435,2.4434,2.4545,2.4632,2.4762,2.483,2.4857,2.4995,2.5046,2.5195,2.5237,2.534,2.5541,2.5633,2.5705,2.5836,2.5863,2.5871,2.5911,2.5998,2.6011,2.6023,2.6073,2.609,2.5883,2.5883,2.5883,0,2.4359,2.4527,2.4599,2.4716,2.4793,2.4843,2.4958,2.5039,2.5201,2.5254,2.5241,2.5497,2.5587,2.5764,2.5796,2.5852,2.5888,2.5856,2.6003,2.6016,2.6028,2.6077,2.6095,2.5884,2.5884,2.5884,2.5884,0,2.4533,2.4649,2.4724,2.4878,2.4963,2.5078,2.5171,2.5248,2.5288,2.5359,2.5512,2.5621,2.5762,2.5807,2.5847,2.5992,2.5983,2.5985,2.5963,2.6042,2.609,2.6109,2.5884,2.5884,2.5884,2.5884,0,0,2.4611,2.4805,2.4831,2.4903,2.5051,2.5144,2.5263,2.5399,2.5466,2.5576,2.568,2.585,2.5854,2.5937,2.5988,2.6064,2.6165,2.6058,2.6063,2.6077,2.6335,2.6335,2.6355,2.6183,2.6187,2.619,2.6326,0,2.4726,2.4938,2.5008,2.5185,2.5296,2.5346,2.545,2.5554,2.5623,2.5729,2.5807,2.5927,2.5921,2.5972,2.605,2.6136,2.6219,2.6127,2.6285,2.629,2.6254,2.6379,2.6378,2.6501,2.6344,2.6348,2.635,0,2.4888,2.5,2.5188,2.5325,2.5374,2.5466,2.5599,2.5698,2.5818,2.5863,2.5956,2.6001,2.6131,2.6099,2.6281,2.6217,2.6285,2.6338,2.6344,2.6365,2.6326,2.6406,2.6542,2.6561,2.6379,2.6377,2.6375,0,2.4931,2.5129,2.5268,2.5327,2.5489,2.5554,2.5625,2.5741,2.582,2.5936,2.5989,2.6118,2.619,2.6291,2.6372,2.634,2.6548,2.6521,2.6593,2.6591,2.6636,2.6633,2.6788,2.6675,2.6674,2.6674,2.6674,0,2.5053,2.5167,2.5289,2.5375,2.5506,2.5586,2.5714,2.5788,2.5892,2.5995,2.6046,2.6143,2.6242,2.6353,2.6417,2.656,2.6591,2.6634,2.665,2.6631,2.6626,2.668,2.6675,2.6679,2.6678,2.6677,2.6676,0,2.5123,2.5209,2.5365,2.5505,2.5544,2.5634,2.5756,2.5843,2.5914,2.6045,2.6081,2.6194,2.6327,2.6417,2.6587,2.663,2.6787,2.68,2.6746,2.6755,2.6822,2.6816,2.702,2.7052,2.6913,2.6915,2.6916,0,2.5197,2.5286,2.5436,2.5509,2.558,2.5695,2.5775,2.5859,2.5941,2.6085,2.6156,2.6292,2.6405,2.6616,2.6715,2.6847,2.6866,2.6928,2.6886,2.6865,2.6871,2.6866,2.6877,2.6936,2.6937,2.6938,2.6938,0,2.532,2.5359,2.5471,2.56,2.5695,2.58,2.5906,2.5963,2.6066,2.6156,2.6292,2.638,2.6554,2.669,2.6831,2.6907,2.6942,2.695,2.6975,2.6958,2.6924,2.6947,2.6768,2.6946,2.6945,2.6945,2.6944,2.6944,2.5398,2.548,2.5599,2.5725,2.5813,2.5912,2.6001,2.6084,2.6198,2.6346,2.6388,2.6531,2.6652,2.6845,2.6923,2.7038,2.7033,2.7067,2.7076,2.7084,2.7086,2.6903,2.7064,2.7064,2.7064,2.7064,2.7064,0,2.5526,2.5606,2.572,2.5867,2.5966,2.5987,2.6106,2.6189,2.6313,2.6422,2.6533,2.6691,2.6824,2.6933,2.7071,2.7142,2.7162,2.7176,2.7173,2.7191,2.7081,2.7048,2.7158,2.7158,2.7158,2.7158,2.7158,2.7158,2.5605,2.5748,2.5801,2.5989,2.6068,2.6207,2.6274,2.6367,2.6455,2.6628,2.6738,2.6808,2.6919,2.7066,2.719,2.7219,2.7269,2.728,2.7313,2.7209,2.7199,2.7188,2.7158,2.7289,2.729,2.7415,2.7416,2.7417]}]]